Broomfield, CO

5:34 PM MST on February 14, 2016 (GMT -0700)
Jeffco

Weather History for KBJC - December, 2011

Change the Weather History Date:

Friday, December 2, 2011

  Actual Average Record
Temperature  
Mean Temperature 24 °F -  
Max Temperature 35 °F 45 °F 71 °F (1998)
Min Temperature 12 °F 26 °F 1 °F (1985)
Degree Days  
Heating Degree Days 42    
Moisture  
Dew Point 16 °F    
Average Humidity 78    
Maximum Humidity 93    
Minimum Humidity 56    
Precipitation  
Precipitation 0.00 in - - ()
Sea Level Pressure  
Sea Level Pressure 29.97 in    
Wind  
Wind Speed 5 mph (NW)    
Max Wind Speed 17 mph    
Max Gust Speed 23 mph    
Visibility 11 miles    
Events Snow    
Averages and records for this station are not official NWS values.
T = Trace of Precipitation, MM = Missing Value Source: NWS Daily Summary

Daily Weather History Graph

Daily Weather History Graph

Search for Another Location

Airport or City:

Trip Planner

Search our weather history database for the weather conditions in past years. The results will help you decide how hot, cold, wet, or windy it might be!

Date:

Astronomy

Dec. 02, 2011 Rise Set
Actual Time 7:03 AM MST 4:35 PM MST
Civil Twilight 6:33 AM MST 5:05 PM MST
Nautical Twilight 6:00 AM MST 5:39 PM MST
Astronomical Twilight 5:27 AM MST 6:12 PM MST
Moon 12:15 PM MST (12/2) No Moon Set
Length of Visible Light 10h 32m
Length of Day
9h 32m
First Quarter, 54% of the Moon is Illuminated
Dec 2
First Quarter
Dec 10
Full
Dec 17
Last Quarter
Dec 24
New
Dec 31
First Quarter

Hourly Weather History & Observations

Time (MST) Temp. Windchill Dew Point Humidity Pressure Visibility Wind Dir Wind Speed Gust Speed Precip Events Conditions
12:05 AM 17.6 °F 9.3 °F 14.0 °F 86% 30.24 in 10.0 mi NNW 5.8 mph - N/A   Clear
12:26 AM 17.6 °F 8.2 °F 14.0 °F 86% 30.22 in 10.0 mi NNW 6.9 mph - N/A   Clear
12:46 AM 17.6 °F 8.2 °F 14.0 °F 86% 30.21 in 10.0 mi NW 6.9 mph - N/A   Clear
1:05 AM 17.6 °F 10.7 °F 12.2 °F 79% 30.19 in 10.0 mi NW 4.6 mph - N/A   Clear
1:26 AM 14.0 °F - 12.2 °F 93% 30.17 in 7.0 mi Calm Calm - N/A   Clear
1:46 AM 14.0 °F - 10.4 °F 86% 30.16 in 7.0 mi Calm Calm - N/A   Clear
2:06 AM 12.2 °F 2.9 °F 8.6 °F 85% 30.15 in 7.0 mi West 5.8 mph - N/A   Clear
2:26 AM 12.2 °F 2.9 °F 8.6 °F 85% 30.13 in 10.0 mi WSW 5.8 mph - N/A   Clear
2:46 AM 14.0 °F 6.5 °F 10.4 °F 86% 30.11 in 10.0 mi SW 4.6 mph - N/A   Clear
3:06 AM 14.0 °F - 10.4 °F 86% 30.09 in 10.0 mi Calm Calm - N/A   Clear
3:26 AM 14.0 °F - 10.4 °F 86% 30.07 in 10.0 mi Calm Calm - N/A   Clear
3:46 AM 12.2 °F 6.1 °F 10.4 °F 92% 30.05 in 10.0 mi WSW 3.5 mph - N/A   Clear
4:06 AM 14.0 °F 8.2 °F 10.4 °F 86% 30.03 in 10.0 mi SW 3.5 mph - N/A   Clear
4:26 AM 14.0 °F - 10.4 °F 86% 30.02 in 10.0 mi Calm Calm - N/A   Clear
4:46 AM 14.0 °F 8.2 °F 10.4 °F 86% 30.00 in 10.0 mi West 3.5 mph - N/A   Clear
5:48 AM 15.8 °F - 10.4 °F 79% 29.96 in 20.0 mi Calm Calm - N/A   Mostly Cloudy
6:53 AM 14.0 °F - 8.6 °F 79% 29.92 in 80.0 mi Calm Calm - N/A   Partly Cloudy
7:53 AM 19.4 °F 10.4 °F 10.4 °F 68% 29.90 in 80.0 mi NW 6.9 mph - N/A   Clear
8:50 AM 19.4 °F - 12.2 °F 74% 29.87 in 80.0 mi Calm Calm - N/A   Partly Cloudy
9:47 AM 23.0 °F - 14.0 °F 68% 29.87 in 30.0 mi Calm Calm - N/A   Partly Cloudy
10:47 AM 26.6 °F - 15.8 °F 64% 29.84 in 30.0 mi Calm Calm - N/A   Partly Cloudy
11:47 AM 28.4 °F - 17.6 °F 64% 29.81 in 12.0 mi Calm Calm - N/A   Partly Cloudy
12:48 PM 30.2 °F 24.3 °F 19.4 °F 64% 29.78 in 10.0 mi West 5.8 mph - N/A   Partly Cloudy
1:56 PM 32.0 °F - 21.2 °F 64% 29.75 in 30.0 mi Calm Calm - N/A   Partly Cloudy
2:53 PM 35.6 °F - 21.2 °F 56% 29.74 in 30.0 mi Calm Calm - N/A   Partly Cloudy
4:46 PM 30.2 °F 22.6 °F 21.2 °F 69% 29.74 in 10.0 mi NNW 8.1 mph - N/A   Scattered Clouds
4:50 PM 32.0 °F - 21.2 °F 64% 29.74 in 30.0 mi Calm Calm - N/A   Scattered Clouds
5:53 PM 23.0 °F 9.2 °F 17.6 °F 80% 29.81 in 10.0 mi NW 17.3 mph - N/A   Mostly Cloudy
6:48 PM 30.2 °F 18.5 °F 19.4 °F 64% 29.87 in 20.0 mi NW 17.3 mph 23.0 mph N/A   Mostly Cloudy
7:47 PM 32.0 °F 23.0 °F 19.4 °F 60% 29.90 in 20.0 mi NNW 11.5 mph - N/A   Mostly Cloudy
8:45 PM 30.2 °F 23.4 °F 21.2 °F 69% 29.93 in 15.0 mi NW 6.9 mph - N/A   Mostly Cloudy
9:48 PM 30.2 °F 20.2 °F 23.0 °F 75% 29.93 in 15.0 mi NNW 12.7 mph - N/A Snow Light Snow
10:06 PM 30.2 °F 20.8 °F 23.0 °F 75% 29.95 in 10.0 mi North 11.5 mph - N/A Snow Light Snow
10:26 PM 30.2 °F 20.8 °F 24.8 °F 80% 29.94 in 10.0 mi North 11.5 mph - N/A   Overcast
10:46 PM 30.2 °F 21.3 °F 26.6 °F 86% 29.95 in 7.0 mi North 10.4 mph - N/A Snow Light Snow
11:06 PM 30.2 °F 21.3 °F 26.6 °F 86% 29.96 in 7.0 mi North 10.4 mph - N/A Snow Light Snow
11:26 PM 28.4 °F 17.5 °F 26.6 °F 93% 29.97 in 2.5 mi North 13.8 mph 17.3 mph N/A Snow Light Snow